Time,TemperatureF,DewpointF,PressureIn,WindDirection,WindDirectionDegrees,WindSpeedMPH,WindSpeedGustMPH,Humidity,HourlyPrecipIn,Conditions,Clouds,dailyrainin,SoftwareType,DateUTC
2014-03-17 00:25:00,-999.0,-99.9,-100.00,WNW,298,6.0,16.0,-999,-99.99,,,-99.99,,2014-03-17 04:25:00,
2014-03-17 01:12:00,16.0,-11.0,-100.00,WNW,298,6.0,16.0,29,0.00,,,0.00,,2014-03-17 05:12:00,
2014-03-17 02:03:00,15.0,-8.0,-100.00,NNW,341,4.0,10.0,35,0.00,,,0.00,,2014-03-17 06:03:00,
2014-03-17 02:12:00,15.0,-8.0,-100.00,NNW,341,4.0,10.0,35,0.00,,,0.00,,2014-03-17 06:12:00,
2014-03-17 02:22:00,15.0,-8.0,-100.00,NNW,341,4.0,10.0,35,0.00,,,0.00,,2014-03-17 06:22:00,
2014-03-17 02:52:00,14.0,-9.0,-100.00,NW,324,4.0,10.0,35,0.00,,,0.00,,2014-03-17 06:52:00,
2014-03-17 03:02:00,14.0,-9.0,-100.00,NW,324,4.0,10.0,35,0.00,,,0.00,,2014-03-17 07:02:00,
2014-03-17 03:11:00,14.0,-9.0,-100.00,NW,324,4.0,10.0,35,0.00,,,0.00,,2014-03-17 07:11:00,
2014-03-17 03:22:00,14.0,-9.0,-100.00,NW,324,4.0,10.0,35,0.00,,,0.00,,2014-03-17 07:22:00,
2014-03-17 03:52:00,12.0,-9.0,-100.00,WNW,302,2.0,8.0,37,0.00,,,0.00,,2014-03-17 07:52:00,
2014-03-17 04:02:00,12.0,-9.0,-100.00,WNW,302,2.0,8.0,37,0.00,,,0.00,,2014-03-17 08:02:00,
2014-03-17 04:11:00,12.0,-9.0,-100.00,WNW,302,2.0,8.0,37,0.00,,,0.00,,2014-03-17 08:11:00,
2014-03-17 04:22:00,12.0,-9.0,-100.00,WNW,302,2.0,8.0,37,0.00,,,0.00,,2014-03-17 08:22:00,
2014-03-17 04:52:00,12.0,-9.0,-100.00,NNW,337,2.0,7.0,38,0.00,,,0.00,,2014-03-17 08:52:00,
2014-03-17 05:02:00,12.0,-9.0,-100.00,NNW,337,2.0,7.0,38,0.00,,,0.00,,2014-03-17 09:02:00,
2014-03-17 05:12:00,12.0,-9.0,-100.00,NNW,337,2.0,7.0,38,0.00,,,0.00,,2014-03-17 09:12:00,
2014-03-17 05:22:00,12.0,-9.0,-100.00,NNW,337,2.0,7.0,38,0.00,,,0.00,,2014-03-17 09:22:00,
2014-03-17 05:54:00,11.0,-8.0,-100.00,North,-999,0.0,6.0,41,0.00,,,0.00,,2014-03-17 09:54:00,
2014-03-17 06:03:00,11.0,-8.0,-100.00,North,-999,0.0,6.0,41,0.00,,,0.00,,2014-03-17 10:03:00,
2014-03-17 06:12:00,11.0,-8.0,-100.00,North,-999,0.0,6.0,41,0.00,,,0.00,,2014-03-17 10:12:00,
2014-03-17 06:23:00,11.0,-8.0,-100.00,North,-999,0.0,6.0,41,0.00,,,0.00,,2014-03-17 10:23:00,
2014-03-17 06:53:00,11.0,-7.0,-100.00,NW,307,1.0,3.0,43,0.00,,,0.00,,2014-03-17 10:53:00,
2014-03-17 07:02:00,11.0,-7.0,-100.00,NW,307,1.0,3.0,43,0.00,,,0.00,,2014-03-17 11:02:00,
2014-03-17 07:12:00,11.0,-7.0,-100.00,NW,307,1.0,3.0,43,0.00,,,0.00,,2014-03-17 11:12:00,
2014-03-17 07:22:00,11.0,-7.0,-100.00,NW,307,1.0,3.0,43,0.00,,,0.00,,2014-03-17 11:22:00,
2014-03-17 07:52:00,11.0,-6.0,-100.00,WNW,301,2.0,5.0,46,0.00,,,0.00,,2014-03-17 11:52:00,
2014-03-17 08:02:00,11.0,-6.0,-100.00,WNW,301,2.0,5.0,46,0.00,,,0.00,,2014-03-17 12:02:00,
2014-03-17 08:12:00,11.0,-6.0,-100.00,WNW,301,2.0,5.0,46,0.00,,,0.00,,2014-03-17 12:12:00,
2014-03-17 08:22:00,11.0,-6.0,-100.00,WNW,301,2.0,5.0,46,0.00,,,0.00,,2014-03-17 12:22:00,
2014-03-17 08:52:00,14.0,-7.0,-100.00,WNW,300,2.0,6.0,37,0.00,,,0.00,,2014-03-17 12:52:00,
2014-03-17 09:02:00,14.0,-7.0,-100.00,WNW,300,2.0,6.0,37,0.00,,,0.00,,2014-03-17 13:02:00,
2014-03-17 09:11:00,14.0,-7.0,-100.00,WNW,300,2.0,6.0,37,0.00,,,0.00,,2014-03-17 13:11:00,
2014-03-17 09:22:00,14.0,-7.0,-100.00,WNW,300,2.0,6.0,37,0.00,,,0.00,,2014-03-17 13:22:00,
2014-03-17 09:53:00,16.0,-9.0,-100.00,NNW,343,3.0,7.0,31,0.00,,,0.00,,2014-03-17 13:53:00,
2014-03-17 10:02:00,16.0,-9.0,-100.00,NNW,343,3.0,7.0,31,0.00,,,0.00,,2014-03-17 14:02:00,
2014-03-17 10:12:00,16.0,-9.0,-100.00,NNW,343,3.0,7.0,31,0.00,,,0.00,,2014-03-17 14:12:00,
2014-03-17 10:22:00,16.0,-9.0,-100.00,NNW,343,3.0,7.0,31,0.00,,,0.00,,2014-03-17 14:22:00,
2014-03-17 10:52:00,20.0,-9.0,-100.00,NNW,330,3.0,8.0,27,0.00,,,0.00,,2014-03-17 14:52:00,
2014-03-17 11:02:00,20.0,-9.0,-100.00,NNW,330,3.0,8.0,27,0.00,,,0.00,,2014-03-17 15:02:00,
2014-03-17 11:12:00,20.0,-9.0,-100.00,NNW,330,3.0,8.0,27,0.00,,,0.00,,2014-03-17 15:12:00,
2014-03-17 11:22:00,20.0,-9.0,-100.00,NNW,330,3.0,8.0,27,0.00,,,0.00,,2014-03-17 15:22:00,
2014-03-17 13:13:00,27.0,1.0,-100.00,East,101,3.0,8.0,32,0.00,,,0.00,,2014-03-17 17:13:00,
2014-03-17 13:23:00,27.0,1.0,-100.00,East,101,3.0,8.0,32,0.00,,,0.00,,2014-03-17 17:23:00,
2014-03-17 13:52:00,25.0,2.0,-100.00,SE,133,5.0,9.0,36,0.00,,,-99.99,,2014-03-17 17:52:00,
2014-03-17 14:02:00,25.0,2.0,-100.00,SE,133,5.0,9.0,36,0.00,,,-99.99,,2014-03-17 18:02:00,
2014-03-17 14:12:00,25.0,2.0,-100.00,SE,133,5.0,9.0,36,0.00,,,-99.99,,2014-03-17 18:12:00,
2014-03-17 14:22:00,25.0,2.0,-100.00,SE,133,5.0,9.0,36,0.00,,,-99.99,,2014-03-17 18:22:00,
2014-03-17 14:52:00,26.0,3.0,-100.00,SE,146,6.0,11.0,36,0.00,,,0.00,,2014-03-17 18:52:00,
2014-03-17 15:01:00,26.0,3.0,-100.00,SE,146,6.0,11.0,36,0.00,,,0.00,,2014-03-17 19:01:00,
2014-03-17 15:12:00,26.0,3.0,-100.00,SE,146,6.0,11.0,36,0.00,,,0.00,,2014-03-17 19:12:00,
2014-03-17 15:22:00,26.0,3.0,-100.00,SE,146,6.0,11.0,36,0.00,,,0.00,,2014-03-17 19:22:00,
2014-03-17 15:53:00,26.0,4.0,-100.00,ESE,121,5.0,9.0,38,0.00,,,0.00,,2014-03-17 19:53:00,
2014-03-17 16:02:00,26.0,4.0,-100.00,ESE,121,5.0,9.0,38,0.00,,,0.00,,2014-03-17 20:02:00,
2014-03-17 16:12:00,26.0,4.0,-100.00,ESE,121,5.0,9.0,38,0.00,,,0.00,,2014-03-17 20:12:00,
2014-03-17 16:22:00,26.0,4.0,-100.00,ESE,121,5.0,9.0,38,0.00,,,0.00,,2014-03-17 20:22:00,
2014-03-17 16:53:00,26.0,6.0,-100.00,SE,134,5.0,9.0,42,0.00,,,0.00,,2014-03-17 20:53:00,
2014-03-17 17:02:00,26.0,6.0,-100.00,SE,134,5.0,9.0,42,0.00,,,0.00,,2014-03-17 21:02:00,
2014-03-17 17:12:00,26.0,6.0,-100.00,SE,134,5.0,9.0,42,0.00,,,0.00,,2014-03-17 21:12:00,
2014-03-17 17:22:00,26.0,6.0,-100.00,SE,134,5.0,9.0,42,0.00,,,0.00,,2014-03-17 21:22:00,
2014-03-17 17:54:00,25.0,7.0,-100.00,SE,143,4.0,10.0,46,0.00,,,0.00,,2014-03-17 21:54:00,
2014-03-17 18:03:00,25.0,7.0,-100.00,SE,143,4.0,10.0,46,0.00,,,0.00,,2014-03-17 22:03:00,
2014-03-17 18:12:00,25.0,7.0,-100.00,SE,143,4.0,10.0,46,0.00,,,0.00,,2014-03-17 22:12:00,
2014-03-17 18:23:00,25.0,7.0,-100.00,SE,143,4.0,10.0,46,0.00,,,0.00,,2014-03-17 22:23:00,
2014-03-17 18:54:00,23.0,8.0,-100.00,South,169,2.0,7.0,51,0.00,,,0.00,,2014-03-17 22:54:00,
2014-03-17 19:02:00,23.0,8.0,-100.00,South,169,2.0,7.0,51,0.00,,,0.00,,2014-03-17 23:02:00,
2014-03-17 19:12:00,23.0,8.0,-100.00,South,169,2.0,7.0,51,0.00,,,0.00,,2014-03-17 23:12:00,
2014-03-17 19:22:00,23.0,8.0,-100.00,South,169,2.0,7.0,51,0.00,,,0.00,,2014-03-17 23:22:00,
2014-03-17 19:52:00,21.0,7.0,-100.00,SSE,161,1.0,5.0,53,0.00,,,0.00,,2014-03-17 23:52:00,
2014-03-17 20:02:00,21.0,7.0,-100.00,SSE,161,1.0,5.0,53,0.00,,,0.00,,2014-03-18 00:02:00,
2014-03-17 20:12:00,21.0,7.0,-100.00,SSE,161,1.0,5.0,53,0.00,,,0.00,,2014-03-18 00:12:00,
2014-03-17 20:22:00,21.0,7.0,-100.00,SSE,161,1.0,5.0,53,0.00,,,0.00,,2014-03-18 00:22:00,
2014-03-17 20:52:00,18.0,8.0,-100.00,NW,311,2.0,3.0,65,0.00,,,0.00,,2014-03-18 00:52:00,
2014-03-17 21:02:00,18.0,8.0,-100.00,NW,311,2.0,3.0,65,0.00,,,0.00,,2014-03-18 01:02:00,
2014-03-17 21:11:00,18.0,8.0,-100.00,NW,311,2.0,3.0,65,0.00,,,0.00,,2014-03-18 01:11:00,
2014-03-17 21:22:00,18.0,8.0,-100.00,NW,311,2.0,3.0,65,0.00,,,0.00,,2014-03-18 01:22:00,
2014-03-17 21:52:00,16.0,9.0,-100.00,WNW,303,1.0,3.0,72,0.00,,,0.00,,2014-03-18 01:52:00,
2014-03-17 22:02:00,16.0,9.0,-100.00,WNW,303,1.0,3.0,72,0.00,,,0.00,,2014-03-18 02:02:00,
2014-03-17 22:12:00,16.0,9.0,-100.00,WNW,303,1.0,3.0,72,0.00,,,0.00,,2014-03-18 02:12:00,
2014-03-17 22:22:00,16.0,9.0,-100.00,WNW,303,1.0,3.0,72,0.00,,,0.00,,2014-03-18 02:22:00,
2014-03-17 22:52:00,15.0,9.0,-100.00,NW,312,1.0,3.0,75,0.00,,,0.00,,2014-03-18 02:52:00,
2014-03-17 23:02:00,15.0,9.0,-100.00,NW,312,1.0,3.0,75,0.00,,,0.00,,2014-03-18 03:02:00,